| time (UTC) | temp F | wind direction | speed knots | gust knots | rain 1hr in | rain 24hr in | rain mn in | humidity % | barometer mb |
| 20260906231902 | 97 | 103 | 1.7 | 2.6 | 0.00 | 0.00 | 0.00 | 47 | 1011.2 |
| 20260906231357 | 97 | 150 | 0.9 | 4.3 | 0.00 | 0.00 | 0.00 | 47 | 1011.3 |
| 20260906230856 | 97 | 144 | 0.9 | 2.6 | 0.00 | 0.00 | 0.00 | 45 | 1011.0 |
| 20260906230352 | 97 | 106 | 0.9 | 5.2 | 0.00 | 0.00 | 0.00 | 48 | 1011.2 |
| 20260906225850 | 98 | 163 | 0.0 | 2.6 | 0.00 | 0.00 | 0.00 | 45 | 1011.3 |
| 20260906225346 | 98 | 129 | 1.7 | 1.7 | 0.00 | 0.00 | 0.00 | 43 | 1011.2 |
| 20260906224841 | 98 | 147 | 1.7 | 6.1 | 0.00 | 0.00 | 0.00 | 42 | 1011.3 |
| 20260906224338 | 98 | 82 | 2.6 | 2.6 | 0.00 | 0.00 | 0.00 | 47 | 1011.1 |
| 20260906223833 | 98 | 86 | 0.9 | 4.3 | 0.00 | 0.00 | 0.00 | 45 | 1011.3 |
| 20260906223329 | 98 | 77 | 0.9 | 1.7 | 0.00 | 0.00 | 0.00 | 48 | 1011.3 |
| 20260906222827 | 99 | 84 | 3.5 | 6.1 | 0.00 | 0.00 | 0.00 | 45 | 1011.2 |
| 20260906222321 | 99 | 89 | 1.7 | 1.7 | 0.00 | 0.00 | 0.00 | 43 | 1011.2 |
| 20260906221819 | 99 | 138 | 1.7 | 2.6 | 0.00 | 0.00 | 0.00 | 45 | 1011.4 |
| 20260906221313 | 99 | 108 | 2.6 | 2.6 | 0.00 | 0.00 | 0.00 | 43 | 1011.5 |
| 20260906220809 | 98 | 106 | 0.9 | 1.7 | 0.00 | 0.00 | 0.00 | 44 | 1011.4 |
| 20260906220304 | 98 | 96 | 0.9 | 0.9 | 0.00 | 0.00 | 0.00 | 44 | 1011.4 |
| 20260906215802 | 99 | 148 | 0.9 | 7.0 | 0.00 | 0.00 | 0.00 | 44 | 1011.5 |
| 20260906215257 | 99 | 149 | 1.7 | 1.7 | 0.00 | 0.00 | 0.00 | 41 | 1011.5 |
| 20260906214755 | 98 | 145 | 0.9 | 1.7 | 0.00 | 0.00 | 0.00 | 43 | 1011.6 |
| 20260906214250 | 98 | 131 | 1.7 | 1.7 | 0.00 | 0.00 | 0.00 | 49 | 1011.7 |
| 20260906213744 | 100 | 119 | 2.6 | 5.2 | 0.00 | 0.00 | 0.00 | 44 | 1011.6 |
| 20260906213243 | 100 | 145 | 1.7 | 1.7 | 0.00 | 0.00 | 0.00 | 41 | 1011.5 |
| 20260906212740 | 100 | 132 | 0.9 | 2.6 | 0.00 | 0.00 | 0.00 | 44 | 1011.7 |
| 20260906212237 | 100 | 194 | 1.7 | 2.6 | 0.00 | 0.00 | 0.00 | 41 | 1011.7 |
| 20260906211736 | 101 | 192 | 1.7 | 4.3 | 0.00 | 0.00 | 0.00 | 41 | 1012.0 |
| 20260906211232 | 100 | 116 | 1.7 | 4.3 | 0.00 | 0.00 | 0.00 | 43 | 1011.8 |
| 20260906210726 | 100 | 141 | 0.9 | 2.6 | 0.00 | 0.00 | 0.00 | 42 | 1012.1 |
| 20260906210221 | 99 | 115 | 0.9 | 4.3 | 0.00 | 0.00 | 0.00 | 48 | 1012.1 |
| 20260906205716 | 99 | 139 | 0.0 | 4.3 | 0.00 | 0.00 | 0.00 | 44 | 1012.2 |
| 20260906205213 | 101 | 188 | 0.9 | 1.7 | 0.00 | 0.00 | 0.00 | 44 | 1012.2 |
| 20260906204713 | 100 | 28 | 2.6 | 2.6 | 0.00 | 0.00 | 0.00 | 41 | 1012.0 |
| 20260906204207 | 100 | 99 | 0.9 | 4.3 | 0.00 | 0.00 | 0.00 | 47 | 1012.2 |
| 20260906203707 | 99 | 79 | 2.6 | 5.2 | 0.00 | 0.00 | 0.00 | 46 | 1012.1 |
| 20260906203202 | 99 | 95 | 2.6 | 4.3 | 0.00 | 0.00 | 0.00 | 45 | 1012.4 |
| 20260906202659 | 100 | 90 | 0.9 | 2.6 | 0.00 | 0.00 | 0.00 | 43 | 1012.5 |
| 20260906202157 | 98 | 106 | 2.6 | 5.2 | 0.00 | 0.00 | 0.00 | 43 | 1012.5 |
| 20260906201653 | 97 | 83 | 1.7 | 4.3 | 0.00 | 0.00 | 0.00 | 50 | 1012.7 |
| 20260906201152 | 98 | 104 | 0.0 | 5.2 | 0.00 | 0.00 | 0.00 | 49 | 1012.7 |
| 20260906200648 | 100 | 163 | 2.6 | 4.3 | 0.00 | 0.00 | 0.00 | 42 | 1012.7 |
| 20260906200144 | 100 | 151 | 2.6 | 5.2 | 0.00 | 0.00 | 0.00 | 45 | 1012.6 |
| 20260906195639 | 99 | 99 | 0.9 | 2.6 | 0.00 | 0.00 | 0.00 | 45 | 1012.8 |
| 20260906195136 | 99 | 104 | 0.9 | 2.6 | 0.00 | 0.00 | 0.00 | 46 | 1012.9 |
| 20260906194631 | 100 | 103 | 0.9 | 1.7 | 0.00 | 0.00 | 0.00 | 43 | 1012.8 |
| 20260906194126 | 98 | 131 | 0.9 | 4.3 | 0.00 | 0.00 | 0.00 | 48 | 1012.9 |
| 20260906193627 | 98 | 128 | 1.7 | 2.6 | 0.00 | 0.00 | 0.00 | 48 | 1012.8 |
| 20260906193122 | 97 | 192 | 1.7 | 2.6 | 0.00 | 0.00 | 0.00 | 47 | 1013.1 |
| 20260906192617 | 98 | 133 | 0.9 | 4.3 | 0.00 | 0.00 | 0.00 | 47 | 1013.0 |
| 20260906192116 | 97 | 93 | 1.7 | 6.1 | 0.00 | 0.00 | 0.00 | 48 | 1013.2 |
| 20260906191612 | 98 | 51 | 1.7 | 2.6 | 0.00 | 0.00 | 0.00 | 50 | 1013.3 |
| 20260906191111 | 99 | 74 | 3.5 | 5.2 | 0.00 | 0.00 | 0.00 | 45 | 1013.4 |
| 20260906190611 | 99 | 88 | 3.5 | 7.8 | 0.00 | 0.00 | 0.00 | 47 | 1013.2 |
| 20260906190106 | 99 | 136 | 1.7 | 4.3 | 0.00 | 0.00 | 0.00 | 46 | 1013.3 |
| 20260906185604 | 99 | 131 | 0.9 | 4.3 | 0.00 | 0.00 | 0.00 | 48 | 1013.4 |
| 20260906185103 | 99 | 149 | 2.6 | 2.6 | 0.00 | 0.00 | 0.00 | 46 | 1013.5 |
| 20260906184558 | 97 | 78 | 2.6 | 4.3 | 0.00 | 0.00 | 0.00 | 48 | 1013.4 |
| 20260906184054 | 98 | 118 | 2.6 | 4.3 | 0.00 | 0.00 | 0.00 | 51 | 1013.8 |
| 20260906183550 | 98 | 175 | 0.9 | 1.7 | 0.00 | 0.00 | 0.00 | 48 | 1013.6 |
| 20260906183046 | 98 | 82 | 2.6 | 4.3 | 0.00 | 0.00 | 0.00 | 46 | 1013.7 |
| 20260906182540 | 98 | 137 | 2.6 | 4.3 | 0.00 | 0.00 | 0.00 | 48 | 1013.9 |
| 20260906182037 | 97 | 77 | 1.7 | 2.6 | 0.00 | 0.00 | 0.00 | 49 | 1014.0 |
| 20260906181532 | 97 | 165 | 1.7 | 4.3 | 0.00 | 0.00 | 0.00 | 48 | 1013.8 |
| 20260906181028 | 97 | 79 | 1.7 | 2.6 | 0.00 | 0.00 | 0.00 | 51 | 1014.0 |
| 20260906180522 | 98 | 107 | 3.5 | 5.2 | 0.00 | 0.00 | 0.00 | 48 | 1014.1 |
| 20260906180021 | 98 | 100 | 2.6 | 4.3 | 0.00 | 0.00 | 0.00 | 50 | 1014.1 |
| 20260906175521 | 97 | 117 | 0.9 | 4.3 | 0.00 | 0.00 | 0.00 | 50 | 1014.2 |
| 20260906175021 | 96 | 107 | 0.9 | 2.6 | 0.00 | 0.00 | 0.00 | 52 | 1014.3 |
| 20260906174519 | 97 | 115 | 4.3 | 5.2 | 0.00 | 0.00 | 0.00 | 51 | 1014.3 |
| 20260906174014 | 97 | 152 | 0.9 | 4.3 | 0.00 | 0.00 | 0.00 | 49 | 1014.5 |
| 20260906173509 | 96 | 95 | 1.7 | 1.7 | 0.00 | 0.00 | 0.00 | 52 | 1014.6 |
| 20260906173005 | 97 | 70 | 1.7 | 1.7 | 0.00 | 0.00 | 0.00 | 50 | 1014.7 |
| 20260906172459 | 95 | 60 | 2.6 | 4.3 | 0.00 | 0.00 | 0.00 | 49 | 1015.1 |
| 20260906171954 | 96 | 60 | 4.3 | 7.0 | 0.00 | 0.00 | 0.00 | 52 | 1015.0 |
| 20260906171449 | 96 | 200 | 2.6 | 6.1 | 0.00 | 0.00 | 0.00 | 50 | 1015.1 |
| 20260906170944 | 95 | 54 | 1.7 | 4.3 | 0.00 | 0.00 | 0.00 | 51 | 1015.1 |
| 20260906170441 | 96 | 139 | 0.0 | 2.6 | 0.00 | 0.00 | 0.00 | 53 | 1015.1 |
| 20260906165938 | 95 | 171 | 1.7 | 4.3 | 0.00 | 0.00 | 0.00 | 54 | 1015.2 |
| 20260906165437 | 95 | 91 | 0.9 | 1.7 | 0.00 | 0.00 | 0.00 | 54 | 1015.1 |
| 20260906164932 | 95 | 204 | 1.7 | 5.2 | 0.00 | 0.00 | 0.00 | 54 | 1015.2 |
| 20260906164430 | 94 | 92 | 0.0 | 0.9 | 0.00 | 0.00 | 0.00 | 54 | 1015.3 |
| 20260906163927 | 95 | 90 | 2.6 | 2.6 | 0.00 | 0.00 | 0.00 | 53 | 1015.4 |
| 20260906163423 | 94 | 108 | 1.7 | 4.3 | 0.00 | 0.00 | 0.00 | 54 | 1015.2 |
| 20260906162921 | 95 | 136 | 0.9 | 2.6 | 0.00 | 0.00 | 0.00 | 54 | 1015.1 |
| 20260906162419 | 94 | 50 | 1.7 | 5.2 | 0.00 | 0.00 | 0.00 | 55 | 1015.5 |
| 20260906161915 | 93 | 190 | 2.6 | 4.3 | 0.00 | 0.00 | 0.00 | 57 | 1015.3 |
| 20260906161414 | 93 | 161 | 0.9 | 2.6 | 0.00 | 0.00 | 0.00 | 58 | 1015.2 |
| 20260906160913 | 94 | 72 | 0.9 | 1.7 | 0.00 | 0.00 | 0.00 | 58 | 1015.4 |
| 20260906160407 | 91 | 125 | 0.9 | 1.7 | 0.00 | 0.00 | 0.00 | 61 | 1015.1 |
| 20260906155905 | 91 | 83 | 1.7 | 4.3 | 0.00 | 0.00 | 0.00 | 63 | 1015.5 |
| 20260906155359 | 92 | 49 | 1.7 | 1.7 | 0.00 | 0.00 | 0.00 | 62 | 1015.2 |
| 20260906154855 | 91 | 85 | 1.7 | 2.6 | 0.00 | 0.00 | 0.00 | 63 | 1015.3 |
| 20260906154349 | 92 | 111 | 0.9 | 1.7 | 0.00 | 0.00 | 0.00 | 62 | 1015.4 |
| 20260906153848 | 91 | 80 | 1.7 | 2.6 | 0.00 | 0.00 | 0.00 | 62 | 1015.2 |
| 20260906153347 | 91 | 94 | 0.0 | 1.7 | 0.00 | 0.00 | 0.00 | 64 | 1015.3 |
| 20260906152842 | 90 | 74 | 1.7 | 1.7 | 0.00 | 0.00 | 0.00 | 63 | 1015.2 |
| 20260906152337 | 90 | 116 | 0.9 | 1.7 | 0.00 | 0.00 | 0.00 | 64 | 1015.1 |
| 20260906151837 | 91 | 60 | 0.9 | 2.6 | 0.00 | 0.00 | 0.00 | 65 | 1015.1 |
| 20260906151332 | 91 | 100 | 0.9 | 1.7 | 0.00 | 0.00 | 0.00 | 63 | 1015.2 |
| 20260906150828 | 90 | 120 | 0.9 | 1.7 | 0.00 | 0.00 | 0.00 | 64 | 1015.3 |
| 20260906150324 | 89 | 99 | 0.9 | 1.7 | 0.00 | 0.00 | 0.00 | 64 | 1015.2 |
| 20260906145823 | 89 | 67 | 0.9 | 1.7 | 0.00 | 0.00 | 0.00 | 65 | 1015.3 |
| 20260906145321 | 88 | 112 | 0.9 | 1.7 | 0.00 | 0.00 | 0.00 | 66 | 1015.1 |
| 20260906144816 | 89 | 92 | 0.9 | 1.7 | 0.00 | 0.00 | 0.00 | 65 | 1015.2 |
| 20260906144311 | 88 | 104 | 0.9 | 1.7 | 0.00 | 0.00 | 0.00 | 68 | 1015.0 |
| 20260906143811 | 89 | 112 | 0.0 | 1.7 | 0.00 | 0.00 | 0.00 | 66 | 1014.9 |
| 20260906143308 | 87 | 95 | 0.9 | 1.7 | 0.00 | 0.00 | 0.00 | 68 | 1014.9 |
| 20260906142802 | 87 | 72 | 0.9 | 0.9 | 0.00 | 0.00 | 0.00 | 70 | 1014.9 |
| 20260906142258 | 86 | 109 | 0.0 | 0.9 | 0.00 | 0.00 | 0.00 | 69 | 1015.2 |
| 20260906141756 | 86 | 88 | 0.9 | 1.7 | 0.00 | 0.00 | 0.00 | 70 | 1015.1 |
| 20260906141251 | 88 | 91 | 0.9 | 0.9 | 0.00 | 0.00 | 0.00 | 69 | 1015.0 |
| 20260906140750 | 87 | 89 | 0.9 | 0.9 | 0.00 | 0.00 | 0.00 | 69 | 1015.0 |
| 20260906140245 | 86 | 97 | 0.9 | 1.7 | 0.00 | 0.00 | 0.00 | 70 | 1014.8 |
| 20260906135743 | 87 | 91 | 0.0 | 0.9 | 0.00 | 0.00 | 0.00 | 70 | 1014.9 |
| 20260906135238 | 86 | 129 | 0.9 | 1.7 | 0.00 | 0.00 | 0.00 | 70 | 1014.8 |
| 20260906134734 | 86 | 135 | 0.0 | 1.7 | 0.00 | 0.00 | 0.00 | 71 | 1014.9 |
| 20260906134229 | 86 | 117 | 0.9 | 1.7 | 0.00 | 0.00 | 0.00 | 72 | 1014.9 |
| 20260906133724 | 85 | 117 | 0.9 | 0.9 | 0.00 | 0.00 | 0.00 | 73 | 1015.0 |
| 20260906133220 | 85 | 123 | 0.0 | 0.9 | 0.00 | 0.00 | 0.00 | 74 | 1014.8 |
| 20260906132715 | 85 | 102 | 0.9 | 1.7 | 0.00 | 0.00 | 0.00 | 73 | 1015.1 |
| 20260906132211 | 85 | 122 | 0.0 | 0.9 | 0.00 | 0.00 | 0.00 | 73 | 1015.1 |
| 20260906131706 | 84 | 117 | 0.0 | 0.9 | 0.00 | 0.00 | 0.00 | 75 | 1014.9 |
| 20260906131201 | 83 | 110 | 0.0 | 1.7 | 0.00 | 0.00 | 0.00 | 76 | 1014.9 |
| 20260906130656 | 83 | 127 | 0.0 | 1.7 | 0.00 | 0.00 | 0.00 | 76 | 1015.1 |
| 20260906130151 | 83 | 137 | 0.9 | 0.9 | 0.00 | 0.00 | 0.00 | 76 | 1015.2 |
| 20260906125649 | 82 | 125 | 0.0 | 0.9 | 0.00 | 0.00 | 0.00 | 77 | 1014.8 |
| 20260906125148 | 82 | 128 | 0.0 | 0.9 | 0.00 | 0.00 | 0.00 | 78 | 1015.0 |
| 20260906124643 | 81 | 105 | 0.0 | 0.9 | 0.00 | 0.00 | 0.00 | 80 | 1014.8 |
| 20260906124139 | 80 | 131 | 0.0 | 0.0 | 0.00 | 0.00 | 0.00 | 81 | 1014.9 |
| 20260906123638 | 80 | 129 | 0.0 | 0.9 | 0.00 | 0.00 | 0.00 | 82 | 1014.9 |
| 20260906123133 | 80 | 139 | 0.9 | 2.6 | 0.00 | 0.00 | 0.00 | 82 | 1014.7 |
| 20260906122632 | 79 | 136 | 0.0 | 0.9 | 0.00 | 0.00 | 0.00 | 83 | 1014.8 |
| 20260906122128 | 79 | 141 | 0.9 | 0.9 | 0.00 | 0.00 | 0.00 | 83 | 1014.8 |
| 20260906121624 | 79 | 158 | 1.7 | 1.7 | 0.00 | 0.00 | 0.00 | 83 | 1014.8 |
| 20260906121120 | 79 | 153 | 0.9 | 0.9 | 0.00 | 0.00 | 0.00 | 83 | 1014.9 |
| 20260906120615 | 79 | 130 | 0.0 | 0.9 | 0.00 | 0.00 | 0.00 | 83 | 1014.7 |
| 20260906120113 | 79 | 139 | 0.9 | 0.9 | 0.00 | 0.00 | 0.00 | 83 | 1014.5 |
| 20260906115607 | 79 | 129 | 0.0 | 0.0 | 0.00 | 0.00 | 0.00 | 83 | 1014.4 |
| 20260906115102 | 80 | 129 | 0.0 | 0.9 | 0.00 | 0.00 | 0.00 | 82 | 1014.4 |
| 20260906114556 | 80 | 132 | 0.9 | 0.9 | 0.00 | 0.00 | 0.00 | 82 | 1014.3 |
| 20260906114051 | 80 | 127 | 0.0 | 0.9 | 0.00 | 0.00 | 0.00 | 82 | 1014.4 |
| 20260906113550 | 79 | 128 | 0.0 | 0.9 | 0.00 | 0.00 | 0.00 | 82 | 1014.4 |
| 20260906113046 | 79 | 133 | 0.9 | 0.9 | 0.00 | 0.00 | 0.00 | 83 | 1014.3 |
| 20260906112540 | 79 | 129 | 0.0 | 0.0 | 0.00 | 0.00 | 0.00 | 83 | 1014.2 |
| 20260906112037 | 79 | 129 | 0.0 | 0.0 | 0.00 | 0.00 | 0.00 | 83 | 1014.2 |
| 20260906111536 | 79 | 127 | 0.0 | 0.0 | 0.00 | 0.00 | 0.00 | 84 | 1014.1 |
| 20260906111032 | 79 | 126 | 0.0 | 0.0 | 0.00 | 0.00 | 0.00 | 84 | 1014.2 |
| 20260906110532 | 79 | 123 | 0.0 | 0.0 | 0.00 | 0.00 | 0.00 | 83 | 1014.1 |
| 20260906110030 | 79 | 121 | 0.0 | 0.0 | 0.00 | 0.00 | 0.00 | 83 | 1014.2 |
| 20260906105526 | 79 | 122 | 0.0 | 0.0 | 0.00 | 0.00 | 0.00 | 83 | 1013.9 |
| 20260906105022 | 79 | 123 | 0.0 | 0.0 | 0.00 | 0.00 | 0.00 | 82 | 1013.9 |
| 20260906104520 | 80 | 107 | 0.0 | 0.0 | 0.00 | 0.00 | 0.00 | 82 | 1013.8 |
| 20260906104015 | 79 | 130 | 0.0 | 0.9 | 0.00 | 0.00 | 0.00 | 82 | 1014.0 |
| 20260906103513 | 79 | 116 | 0.0 | 0.0 | 0.00 | 0.00 | 0.00 | 82 | 1013.9 |
| 20260906103009 | 79 | 125 | 0.0 | 0.0 | 0.00 | 0.00 | 0.00 | 82 | 1014.0 |
| 20260906102508 | 79 | 119 | 0.0 | 0.0 | 0.00 | 0.00 | 0.00 | 82 | 1014.0 |
| 20260906102003 | 79 | 121 | 0.0 | 0.0 | 0.00 | 0.00 | 0.00 | 82 | 1014.0 |
| 20260906101458 | 79 | 123 | 0.0 | 0.0 | 0.00 | 0.00 | 0.00 | 81 | 1013.6 |
| 20260906100953 | 79 | 125 | 0.0 | 0.0 | 0.00 | 0.00 | 0.00 | 82 | 1013.7 |
| 20260906100448 | 80 | 123 | 0.0 | 0.0 | 0.00 | 0.00 | 0.00 | 81 | 1013.6 |
| 20260906095942 | 80 | 122 | 0.0 | 0.0 | 0.00 | 0.00 | 0.00 | 81 | 1013.6 |
| 20260906095437 | 80 | 107 | 0.0 | 0.0 | 0.00 | 0.00 | 0.00 | 81 | 1013.4 |
| 20260906094933 | 80 | 123 | 0.0 | 0.0 | 0.00 | 0.00 | 0.00 | 81 | 1013.5 |
| 20260906094426 | 80 | 125 | 0.0 | 0.0 | 0.00 | 0.00 | 0.00 | 81 | 1013.4 |
| 20260906093922 | 80 | 125 | 0.0 | 0.0 | 0.00 | 0.00 | 0.00 | 81 | 1013.2 |
| 20260906093419 | 80 | 124 | 0.0 | 0.0 | 0.00 | 0.00 | 0.00 | 81 | 1013.3 |
| 20260906092913 | 80 | 137 | 0.0 | 0.9 | 0.00 | 0.00 | 0.00 | 81 | 1013.3 |
| 20260906092413 | 80 | 126 | 0.0 | 0.0 | 0.00 | 0.00 | 0.00 | 82 | 1013.5 |
| 20260906091908 | 79 | 129 | 0.0 | 0.0 | 0.00 | 0.00 | 0.00 | 82 | 1013.1 |
| 20260906091404 | 79 | 111 | 0.0 | 0.0 | 0.00 | 0.00 | 0.00 | 81 | 1013.2 |
| 20260906090901 | 80 | 117 | 0.0 | 0.0 | 0.00 | 0.00 | 0.00 | 81 | 1013.2 |
| 20260906090400 | 80 | 119 | 0.0 | 0.0 | 0.00 | 0.00 | 0.00 | 81 | 1013.3 |
| 20260906085854 | 80 | 116 | 0.0 | 0.0 | 0.00 | 0.00 | 0.00 | 80 | 1013.1 |
| 20260906085348 | 80 | 120 | 0.0 | 0.0 | 0.00 | 0.00 | 0.00 | 80 | 1013.2 |
| 20260906084843 | 80 | 124 | 0.0 | 0.9 | 0.00 | 0.00 | 0.00 | 80 | 1013.0 |
| 20260906084343 | 80 | 123 | 0.0 | 0.0 | 0.00 | 0.00 | 0.00 | 80 | 1013.1 |
| 20260906083837 | 80 | 113 | 0.0 | 0.0 | 0.00 | 0.00 | 0.00 | 80 | 1013.1 |
| 20260906083332 | 80 | 114 | 0.0 | 0.0 | 0.00 | 0.00 | 0.00 | 79 | 1013.2 |
| 20260906082826 | 80 | 121 | 0.0 | 0.0 | 0.00 | 0.00 | 0.00 | 79 | 1013.1 |
| 20260906082322 | 81 | 119 | 0.0 | 0.0 | 0.00 | 0.00 | 0.00 | 79 | 1013.1 |
| 20260906081818 | 81 | 118 | 0.0 | 0.0 | 0.00 | 0.00 | 0.00 | 78 | 1013.2 |
| 20260906081313 | 81 | 127 | 0.0 | 0.0 | 0.00 | 0.00 | 0.00 | 78 | 1013.2 |
| 20260906080809 | 81 | 110 | 0.0 | 0.0 | 0.00 | 0.00 | 0.00 | 77 | 1013.1 |
| 20260906080305 | 82 | 122 | 0.0 | 0.0 | 0.00 | 0.00 | 0.00 | 77 | 1013.1 |
| 20260906075805 | 82 | 116 | 0.0 | 0.9 | 0.00 | 0.00 | 0.00 | 77 | 1013.1 |
| 20260906075306 | 82 | 101 | 0.0 | 0.9 | 0.00 | 0.00 | 0.00 | 76 | 1013.3 |
| 20260906074800 | 82 | 126 | 0.9 | 0.9 | 0.00 | 0.00 | 0.00 | 76 | 1013.3 |
| 20260906074259 | 82 | 128 | 0.0 | 0.0 | 0.00 | 0.00 | 0.00 | 76 | 1013.2 |
| 20260906073759 | 82 | 134 | 0.9 | 1.7 | 0.00 | 0.00 | 0.00 | 76 | 1013.3 |
| 20260906073253 | 82 | 133 | 0.0 | 0.9 | 0.00 | 0.00 | 0.00 | 76 | 1013.3 |
| 20260906072749 | 82 | 110 | 0.0 | 1.7 | 0.00 | 0.00 | 0.00 | 76 | 1013.1 |
| 20260906072245 | 82 | 126 | 0.0 | 2.6 | 0.00 | 0.00 | 0.00 | 76 | 1013.3 |
| 20260906071741 | 82 | 130 | 0.9 | 1.7 | 0.00 | 0.00 | 0.00 | 76 | 1013.3 |
| 20260906071241 | 82 | 128 | 0.9 | 1.7 | 0.00 | 0.00 | 0.00 | 76 | 1013.2 |
| 20260906070737 | 82 | 124 | 0.9 | 0.9 | 0.00 | 0.00 | 0.00 | 76 | 1013.3 |
| 20260906070233 | 82 | 130 | 0.9 | 0.9 | 0.00 | 0.00 | 0.00 | 76 | 1013.5 |
| 20260906065732 | 83 | 140 | 0.9 | 0.9 | 0.00 | 0.00 | 0.00 | 75 | 1013.6 |
| 20260906065228 | 83 | 120 | 0.0 | 0.9 | 0.00 | 0.00 | 0.00 | 75 | 1013.3 |
| 20260906064723 | 83 | 111 | 0.0 | 1.7 | 0.00 | 0.00 | 0.00 | 75 | 1013.6 |
| 20260906064219 | 83 | 113 | 0.9 | 0.9 | 0.00 | 0.00 | 0.00 | 74 | 1013.5 |
| 20260906063714 | 83 | 125 | 0.0 | 0.9 | 0.00 | 0.00 | 0.00 | 74 | 1013.6 |
| 20260906063209 | 83 | 130 | 0.0 | 0.9 | 0.00 | 0.00 | 0.00 | 74 | 1013.6 |
| 20260906062705 | 83 | 135 | 0.0 | 1.7 | 0.00 | 0.00 | 0.00 | 74 | 1013.7 |
| 20260906062204 | 83 | 114 | 1.7 | 1.7 | 0.00 | 0.00 | 0.00 | 74 | 1013.6 |
| 20260906061700 | 83 | 117 | 0.0 | 0.9 | 0.00 | 0.00 | 0.00 | 75 | 1013.8 |
| 20260906061155 | 83 | 123 | 0.0 | 0.9 | 0.00 | 0.00 | 0.00 | 74 | 1013.6 |
| 20260906060651 | 84 | 121 | 0.0 | 0.9 | 0.00 | 0.00 | 0.00 | 74 | 1013.7 |
| 20260906060148 | 84 | 113 | 0.0 | 0.9 | 0.00 | 0.00 | 0.00 | 74 | 1013.7 |
| 20260906055643 | 84 | 118 | 0.9 | 1.7 | 0.00 | 0.00 | 0.00 | 74 | 1013.8 |
| 20260906055139 | 84 | 113 | 0.0 | 0.9 | 0.00 | 0.00 | 0.00 | 74 | 1013.6 |
| 20260906054634 | 84 | 130 | 0.0 | 0.9 | 0.00 | 0.00 | 0.00 | 74 | 1013.5 |
| 20260906054129 | 84 | 115 | 0.0 | 0.9 | 0.00 | 0.00 | 0.00 | 74 | 1013.4 |
| 20260906053626 | 84 | 111 | 0.0 | 0.9 | 0.00 | 0.00 | 0.00 | 73 | 1013.5 |
| 20260906053120 | 84 | 119 | 0.0 | 0.0 | 0.00 | 0.00 | 0.00 | 73 | 1013.5 |
| 20260906052616 | 84 | 112 | 0.0 | 0.9 | 0.00 | 0.00 | 0.00 | 73 | 1013.5 |
| 20260906052112 | 85 | 118 | 0.0 | 0.0 | 0.00 | 0.00 | 0.00 | 73 | 1013.2 |
| 20260906051603 | 85 | 134 | 0.9 | 2.6 | 0.00 | 0.00 | 0.00 | 72 | 1013.5 |
| 20260906051058 | 85 | 121 | 0.9 | 0.9 | 0.00 | 0.00 | 0.00 | 72 | 1013.6 |
| 20260906050558 | 85 | 116 | 0.0 | 0.9 | 0.00 | 0.00 | 0.00 | 72 | 1013.6 |
| 20260906050048 | 85 | 139 | 0.0 | 1.7 | 0.00 | 0.00 | 0.00 | 72 | 1013.5 |
| 20260906045546 | 85 | 111 | 0.9 | 0.9 | 0.00 | 0.00 | 0.00 | 72 | 1013.4 |
| 20260906045042 | 85 | 124 | 0.9 | 1.7 | 0.00 | 0.00 | 0.00 | 72 | 1013.5 |
| 20260906044537 | 85 | 122 | 0.0 | 1.7 | 0.00 | 0.00 | 0.00 | 72 | 1013.5 |
| 20260906044033 | 85 | 128 | 0.0 | 0.9 | 0.00 | 0.00 | 0.00 | 72 | 1013.4 |
| 20260906043528 | 86 | 145 | 0.9 | 1.7 | 0.00 | 0.00 | 0.00 | 71 | 1013.4 |
| 20260906043025 | 86 | 125 | 0.0 | 0.9 | 0.00 | 0.00 | 0.00 | 70 | 1013.2 |
| 20260906042522 | 86 | 146 | 0.9 | 1.7 | 0.00 | 0.00 | 0.00 | 70 | 1013.3 |
| 20260906042018 | 86 | 108 | 0.9 | 0.9 | 0.00 | 0.00 | 0.00 | 69 | 1013.4 |
| 20260906041514 | 86 | 94 | 0.9 | 1.7 | 0.00 | 0.00 | 0.00 | 69 | 1013.2 |
| 20260906041014 | 86 | 128 | 0.9 | 0.9 | 0.00 | 0.00 | 0.00 | 69 | 1013.1 |
| 20260906040509 | 86 | 127 | 0.0 | 0.0 | 0.00 | 0.00 | 0.00 | 69 | 1013.1 |
| 20260906040004 | 87 | 128 | 0.0 | 0.9 | 0.00 | 0.00 | 0.00 | 68 | 1013.1 |
| 20260906035459 | 87 | 132 | 0.0 | 0.9 | 0.00 | 0.00 | 0.00 | 68 | 1013.3 |
| 20260906034955 | 87 | 127 | 0.0 | 0.9 | 0.00 | 0.00 | 0.00 | 67 | 1013.4 |
| 20260906034454 | 87 | 133 | 0.9 | 1.7 | 0.00 | 0.00 | 0.00 | 67 | 1013.1 |
| 20260906033950 | 87 | 124 | 0.9 | 1.7 | 0.00 | 0.00 | 0.00 | 66 | 1013.3 |
| 20260906033444 | 87 | 125 | 0.9 | 2.6 | 0.00 | 0.00 | 0.00 | 66 | 1013.3 |
| 20260906032940 | 87 | 125 | 0.9 | 1.7 | 0.00 | 0.00 | 0.00 | 66 | 1013.2 |
| 20260906032437 | 88 | 125 | 0.0 | 0.9 | 0.00 | 0.00 | 0.00 | 66 | 1013.1 |
| 20260906031930 | 88 | 122 | 0.9 | 1.7 | 0.00 | 0.00 | 0.00 | 66 | 1013.3 |
| 20260906031426 | 88 | 133 | 1.7 | 1.7 | 0.00 | 0.00 | 0.00 | 65 | 1013.5 |
| 20260906030921 | 88 | 141 | 0.9 | 1.7 | 0.00 | 0.00 | 0.00 | 65 | 1013.4 |
| 20260906030416 | 88 | 124 | 0.9 | 1.7 | 0.00 | 0.00 | 0.00 | 65 | 1013.3 |
| 20260906025910 | 88 | 128 | 1.7 | 4.3 | 0.00 | 0.00 | 0.00 | 65 | 1013.1 |
| 20260906025405 | 88 | 101 | 0.9 | 1.7 | 0.00 | 0.00 | 0.00 | 65 | 1013.3 |
| 20260906024904 | 88 | 133 | 0.9 | 4.3 | 0.00 | 0.00 | 0.00 | 64 | 1013.3 |
| 20260906024403 | 88 | 154 | 2.6 | 4.3 | 0.00 | 0.00 | 0.00 | 64 | 1013.1 |
| 20260906023858 | 88 | 132 | 0.0 | 1.7 | 0.00 | 0.00 | 0.00 | 65 | 1013.1 |
| 20260906023354 | 88 | 87 | 0.9 | 1.7 | 0.00 | 0.00 | 0.00 | 64 | 1013.0 |
| 20260906022849 | 88 | 134 | 0.9 | 4.3 | 0.00 | 0.00 | 0.00 | 64 | 1013.2 |
| 20260906022344 | 89 | 141 | 0.0 | 2.6 | 0.00 | 0.00 | 0.00 | 65 | 1012.7 |
| 20260906021840 | 89 | 163 | 0.9 | 4.3 | 0.00 | 0.00 | 0.00 | 63 | 1012.7 |
| 20260906021339 | 89 | 136 | 2.6 | 5.2 | 0.00 | 0.00 | 0.00 | 63 | 1012.7 |
| 20260906020834 | 89 | 170 | 1.7 | 1.7 | 0.00 | 0.00 | 0.00 | 64 | 1012.4 |
| 20260906020333 | 89 | 139 | 3.5 | 5.2 | 0.00 | 0.00 | 0.00 | 63 | 1012.5 |
| 20260906015828 | 89 | 157 | 3.5 | 5.2 | 0.00 | 0.00 | 0.00 | 62 | 1012.4 |
| 20260906015327 | 89 | 121 | 1.7 | 5.2 | 0.00 | 0.00 | 0.00 | 62 | 1012.3 |
| 20260906014827 | 90 | 146 | 1.7 | 2.6 | 0.00 | 0.00 | 0.00 | 62 | 1012.2 |
| 20260906014322 | 90 | 156 | 2.6 | 4.3 | 0.00 | 0.00 | 0.00 | 62 | 1012.5 |
| 20260906013818 | 90 | 145 | 0.9 | 2.6 | 0.00 | 0.00 | 0.00 | 61 | 1012.2 |
| 20260906013313 | 91 | 183 | 3.5 | 5.2 | 0.00 | 0.00 | 0.00 | 59 | 1012.0 |
| 20260906012809 | 91 | 131 | 1.7 | 6.1 | 0.00 | 0.00 | 0.00 | 59 | 1012.2 |
| 20260906012309 | 91 | 179 | 2.6 | 4.3 | 0.00 | 0.00 | 0.00 | 60 | 1011.8 |
| 20260906011804 | 91 | 106 | 1.7 | 5.2 | 0.00 | 0.00 | 0.00 | 59 | 1011.7 |
| 20260906011258 | 92 | 130 | 2.6 | 6.1 | 0.00 | 0.00 | 0.00 | 57 | 1011.6 |
| 20260906010754 | 92 | 136 | 1.7 | 5.2 | 0.00 | 0.00 | 0.00 | 59 | 1011.8 |
| 20260906010250 | 93 | 118 | 1.7 | 7.0 | 0.00 | 0.00 | 0.00 | 59 | 1011.8 |
| 20260906005745 | 94 | 103 | 4.3 | 7.0 | 0.00 | 0.00 | 0.00 | 53 | 1011.4 |
| 20260906005244 | 95 | 152 | 0.9 | 1.7 | 0.00 | 0.00 | 0.00 | 52 | 1011.4 |
| 20260906004743 | 95 | 136 | 0.9 | 1.7 | 0.00 | 0.00 | 0.00 | 49 | 1011.3 |
| 20260906004238 | 95 | 154 | 1.7 | 2.6 | 0.00 | 0.00 | 0.00 | 50 | 1011.2 |
| 20260906003733 | 95 | 144 | 1.7 | 2.6 | 0.00 | 0.00 | 0.00 | 51 | 1011.2 |
| 20260906003229 | 96 | 163 | 0.9 | 1.7 | 0.00 | 0.00 | 0.00 | 49 | 1011.1 |
| 20260906002723 | 96 | 102 | 1.7 | 1.7 | 0.00 | 0.00 | 0.00 | 49 | 1011.3 |
| 20260906002218 | 96 | 142 | 0.9 | 1.7 | 0.00 | 0.00 | 0.00 | 48 | 1011.2 |
| 20260906001714 | 96 | 213 | 3.5 | 4.3 | 0.00 | 0.00 | 0.00 | 45 | 1011.2 |
| 20260906001214 | 96 | 78 | 1.7 | 1.7 | 0.00 | 0.00 | 0.00 | 46 | 1011.3 |
| 20260906000709 | 96 | 171 | 0.9 | 1.7 | 0.00 | 0.00 | 0.00 | 45 | 1011.2 |
| 20260906000204 | 96 | 115 | 0.9 | 1.7 | 0.00 | 0.00 | 0.00 | 43 | 1011.0 |
| 20260905235703 | 96 | 98 | 0.9 | 1.7 | 0.00 | 0.00 | 0.00 | 45 | 1011.0 |
| 20260905235158 | 96 | 130 | 0.9 | 1.7 | 0.00 | 0.00 | 0.00 | 44 | 1011.1 |
| 20260905234653 | 96 | 126 | 0.9 | 0.9 | 0.00 | 0.00 | 0.00 | 47 | 1011.0 |
| 20260905234149 | 96 | 116 | 0.9 | 1.7 | 0.00 | 0.00 | 0.00 | 47 | 1011.0 |
| 20260905233644 | 97 | 132 | 0.0 | 0.9 | 0.00 | 0.00 | 0.00 | 48 | 1010.8 |
| 20260905233143 | 97 | 141 | 1.7 | 2.6 | 0.00 | 0.00 | 0.00 | 43 | 1010.8 |
| 20260905232638 | 97 | 142 | 2.6 | 2.6 | 0.00 | 0.00 | 0.00 | 42 | 1010.8 |